OneWeb SL0107

operational
NORAD ID: 48048 Int'l Des: 2021-025 Owner: ONEWEBN Country: UK Constellation: oneweb
LEOCIRCULARPOLARONEWEB_TYPE

Über OneWeb SL0107

Beschreibung wird geladen...

Live-Position

3D-Globus wird geladen...

Nächste Überflüge

Höhenverlauf

Altitude vs Time

uPlot chart will show altitude changes over time

Zweizeiliger Elementsatz

1 48048U 21025G 25310.58986765 .00000140 00000-0 34932-3 0 9998
2 48048 87.9029 4.4414 0001921 90.6983 269.4366 13.13470746224309
Epoch: 6. Nov. 2025 • Age: 21 hours

Aktueller Status

Höhe 1237.1 km
Geschwindigkeit 7.24 km/s
Subsatellitenpunkt -69.06°S, 30.17°W
Startdatum 25. März 2021
Alter 4.6 years
Typ internet

Technische Details

Klassifizierung Payload
Masse 148.00 kg
Trockenmasse 140.00 kg
Gesamtmasse 148.00 kg
Länge 1.30 m
Durchmesser 1.00 m
Spannweite 5.00 m
Form Trapezoid+2 pan
Hersteller ONEWUS
Bus-Typ ARROW
Phasenstatus In Orbit
Besitzer/Staat ONEWEBN/UK

Große Konstellationen

Loading constellations...